{"data":{"norad_id":54685,"intl_designator":"2022-167D","name":"DONGPO 09","alt_names":[],"object_type":"PAYLOAD","status":"ACTIVE","operator":null,"country":"PRC","launch_date":"2022-12-09","launch_site_code":"SEAL","launch_vehicle":null,"mission":null,"orbit_class":"UNKNOWN","rcs_meters":null,"size_class":null,"mass_kg":null,"dimensions":null,"purposes":[],"wikipedia_slug":null,"has_3d_model":false,"image_url":null,"decayed_at":null,"tle_current":{"epoch":"2026-05-25T05:15:13.390272Z","epoch_age_seconds":66517,"freshness":"FRESH","line1":"1 54685U 22167D   26145.21890498  .00011352  00000+0  32880-3 0  9990","line2":"2 54685  97.6886 315.2134 0002510 171.9263 188.2021 15.35746931191928","mean_motion":15.35746931,"eccentricity":0.000251,"inclination_deg":97.6886,"raan_deg":315.2134,"arg_perigee_deg":171.9263,"mean_anomaly_deg":188.2021,"bstar":0.0003288,"rev_number":19192,"period_min":93.765448651253,"perigee_km":456.98675688356,"apogee_km":460.41885046501,"semimajor_km":6836.8398036743,"source":"CELESTRAK","updated_at":"2026-05-25T13:37:58.708265Z"}}}